Flag for Ukraine Weather past 2 weeks in Odesa, Ukraine

Now
46 °F

Thundershowers. Partly sunny.


Feels Like: 44 °F
Forecast: 39 / 50 °F
Wind: 6 mph from South

Location: Odesa Airport

Current Time: Apr 1, 2015 at 8:24:21 PM

Latest Report: Apr 1, 2015 at 8:00 PM


Visibility: N/A

Pressure: 29.65 "Hg

Humidity: 82%

Dew point: 41 °F

Location of OdesaLocation

Historic Weather in Odesa — Graph

°F

Odesa temperature yesterday

Maximum temperature yesterday: 54 °F (at 5:00 PM)
Minimum temperature yesterday: 41 °F (at 11:00 PM)
Average temperature yesterday: 47 °F

Past Weeks' High & Low Weather Summary

 TemperatureHumidityPressure
High59 °F (Mar 22, 2:30 PM)100% (Mar 19, 7:30 PM)30.51 "Hg (Mar 19, 7:30 PM)
Low27 °F (Mar 24, 2:00 AM)28% (Mar 23, 3:00 PM)29.50 "Hg (Mar 29, 1:30 AM)
Average43 °F78%29.98 "Hg
* Reported Mar 17 6:00 PM — Apr 1 7:00 PM, Odesa, Weather by CustomWeather, © 2015

Note: Actual official high and low records may vary slightly from our data, if they occured in-between our weather recording intervals... More about our weather records

Advertising

Odesa weather history for previous 24 hours

 ConditionsComfort  
Time TempWeatherWind HumidityBarometerVisibility
7:00 PM
Wed, Apr 1
48 °FPartly sunny.8 mph71%29.62 "HgN/A
6:30 PM50 °FPartly sunny.10 mph71%29.62 "HgN/A
6:00 PM50 °FSunny.8 mph71%29.62 "Hg10 mi
5:30 PM52 °FSunny.10 mph67%29.62 "Hg10 mi
5:00 PM57 °FSunny.3 mph48%29.62 "Hg10 mi
4:30 PM55 °FPassing clouds.6 mph51%29.62 "HgN/A
4:00 PM55 °FPassing clouds.3 mph55%29.59 "HgN/A
3:30 PM54 °FSunny.No wind58%29.59 "Hg10 mi
3:00 PM54 °FPassing clouds.3 mph54%29.62 "HgN/A
2:30 PM52 °FPassing clouds.8 mph62%29.62 "HgN/A
2:00 PM52 °FOvercast.13 mph67%29.62 "HgN/A
1:30 PM52 °FMore clouds than sun.22 mph62%29.62 "HgN/A
1:00 PM52 °FMore clouds than sun.17 mph72%29.59 "HgN/A
12:30 PM52 °FMore clouds than sun.15 mph72%29.59 "HgN/A
12:00 PM50 °FClear.13 mph88%29.59 "HgN/A
11:30 AM50 °FBroken clouds.13 mph82%29.56 "HgN/A
11:00 AM48 °FBroken clouds.8 mph94%29.56 "HgN/A
10:30 AM48 °FSprinkles. Broken clouds.6 mph82%29.56 "HgN/A
10:00 AM48 °FSprinkles. More clouds than sun.8 mph82%29.53 "HgN/A
9:30 AM46 °FSprinkles. More clouds than sun.8 mph82%29.53 "HgN/A
9:00 AM46 °FSunny.8 mph82%29.53 "Hg10 mi
8:30 AM46 °FSunny.6 mph82%29.53 "Hg10 mi
8:00 AM46 °FSunny.10 mph82%29.53 "Hg10 mi
7:30 AM45 °FClear.8 mph93%29.53 "Hg10 mi
7:00 AM45 °FClear.8 mph87%29.53 "Hg10 mi
6:30 AM45 °FClear.8 mph87%29.53 "Hg10 mi
6:00 AM45 °FClear.6 mph87%29.53 "Hg10 mi
5:30 AM45 °FClear.6 mph93%29.53 "Hg10 mi
5:00 AM45 °FClear.6 mph93%29.53 "Hg10 mi
4:30 AM45 °FClear.8 mph93%29.53 "Hg10 mi
4:00 AM45 °FPartly cloudy.8 mph93%29.56 "HgN/A
3:30 AM45 °FPartly cloudy.10 mph100%29.56 "HgN/A
3:00 AM45 °FFog.10 mph100%29.56 "Hg1 mi
2:30 AM45 °FFog.13 mph100%29.56 "Hg1 mi
2:00 AM45 °FFog.10 mph100%29.56 "Hg3 mi
1:30 AM45 °FClear.13 mph100%29.59 "Hg10 mi
1:00 AM45 °FClear.13 mph93%29.59 "Hg10 mi
12:30 AM45 °FClear.13 mph87%29.62 "Hg10 mi
12:00 AM45 °FClear.10 mph87%29.62 "Hg10 mi
11:30 PM
Tue, Mar 31
45 °FClear.10 mph81%29.62 "Hg10 mi
11:00 PM41 °FClear.6 mph93%29.65 "Hg10 mi
10:30 PM43 °FClear.8 mph87%29.62 "Hg10 mi
10:00 PM45 °FClear.6 mph87%29.65 "Hg10 mi
9:30 PM45 °FClear.8 mph87%29.65 "Hg10 mi
9:00 PM45 °FClear.6 mph87%29.68 "Hg10 mi
8:30 PM46 °FClear.8 mph82%29.68 "Hg10 mi
8:00 PM46 °FSunny.6 mph82%29.68 "Hg10 mi
Weather by CustomWeather, © 2015

See weather overviewHow to use our weather pages